TimePST,TemperatureF,Dew PointF,Humidity,Sea Level PressureIn,VisibilityMPH,Wind Direction,Wind SpeedMPH,Gust SpeedMPH,PrecipitationIn,Events,Conditions,WindDirDegrees,DateUTC
12:00 AM,47.3,43.0,85,29.69,-9999.0,NE,5.8,-,N/A,,Unknown,40,2012-11-17 08:00:00
1:00 AM,47.3,43.0,85,29.66,-9999.0,NE,4.6,-,N/A,,Unknown,40,2012-11-17 09:00:00
2:00 AM,48.2,42.8,82,29.63,-9999.0,NE,6.9,-,N/A,,Unknown,40,2012-11-17 10:00:00
3:00 AM,48.7,43.0,80,29.60,-9999.0,NE,5.8,-,N/A,,Unknown,40,2012-11-17 11:00:00
4:00 AM,49,43,73,29.57,,NE,5.8,,,,,40,2012-11-17 12:00:00
4:00 AM,49.1,43.0,79,29.57,-9999.0,NE,5.8,-,N/A,,Unknown,40,2012-11-17 12:00:00
5:00 AM,50.2,43.3,77,29.55,-9999.0,ENE,4.6,-,N/A,,Unknown,60,2012-11-17 13:00:00
6:00 AM,52.0,43.5,73,29.52,-9999.0,East,5.8,-,N/A,,Unknown,80,2012-11-17 14:00:00
7:00 AM,49.5,44.1,82,29.51,-9999.0,East,6.9,-,0.02,,Unknown,80,2012-11-17 15:00:00
8:00 AM,48.9,43.7,82,29.49,-9999.0,East,3.5,-,N/A,,Unknown,90,2012-11-17 16:00:00
9:00 AM,49.5,43.3,79,29.46,-9999.0,ENE,5.8,-,N/A,,Unknown,70,2012-11-17 17:00:00
10:00 AM,52,44,64,29.44,,ENE,5.8,,,,,70,2012-11-17 18:00:00
10:00 AM,51.6,43.5,74,29.44,-9999.0,ENE,5.8,-,N/A,,Unknown,70,2012-11-17 18:00:00
11:00 AM,57.7,43.2,58,29.45,-9999.0,SSE,10.4,18.4,N/A,,Unknown,160,2012-11-17 19:00:00
12:00 PM,49.5,45.0,84,29.48,-9999.0,WSW,5.8,-,0.05,,Unknown,240,2012-11-17 20:00:00
1:00 PM,48.4,44.2,86,29.51,-9999.0,WSW,3.5,-,0.04,,Unknown,240,2012-11-17 21:00:00
2:00 PM,46.9,43.3,87,29.51,-9999.0,West,1.2,-,0.10,,Unknown,270,2012-11-17 22:00:00
3:00 PM,46.4,43.0,88,29.52,-9999.0,SE,3.5,-,0.05,,Unknown,130,2012-11-17 23:00:00
4:00 PM,46,43,84,29.56,,East,3.5,,,,,100,2012-11-18 00:00:00
4:00 PM,45.5,42.6,90,29.56,-9999.0,East,3.5,-,0.01,,Unknown,100,2012-11-18 00:00:00
5:00 PM,45.3,42.8,91,29.57,-9999.0,NE,2.3,-,N/A,,Unknown,50,2012-11-18 01:00:00
6:00 PM,44.8,42.1,90,29.60,-9999.0,ESE,4.6,-,N/A,,Unknown,120,2012-11-18 02:00:00
7:00 PM,43.9,40.8,89,29.60,-9999.0,East,5.8,-,N/A,,Unknown,100,2012-11-18 03:00:00
8:00 PM,45.3,41.5,87,29.62,-9999.0,SE,5.8,-,N/A,,Unknown,130,2012-11-18 04:00:00
9:00 PM,46.6,40.8,80,29.64,-9999.0,SSE,8.1,19.6,N/A,,Unknown,150,2012-11-18 05:00:00
10:00 PM,46,41,77,29.64,,SSE,9.2,,,,,160,2012-11-18 06:00:00
10:00 PM,46.2,41.2,83,29.64,-9999.0,SSE,9.2,-,N/A,,Unknown,160,2012-11-18 06:00:00
11:00 PM,46.2,41.2,83,29.65,-9999.0,SSE,10.4,18.4,N/A,,Unknown,160,2012-11-18 07:00:00